Flag for Sweden Weather past 2 weeks in Eskilstuna, Sweden

Now
52 °F

Sunny.


Feels Like: 52 °F
Forecast: 39 / 64 °F
Wind: No wind

Location: Vasteras / Hasslo


UV Index: 0 (Low)

Visibility: 10 mi


Pressure: 30.27 "Hg

Humidity: 67%

Dew point: 41 °F

Location of EskilstunaLocation

Historic Weather in Eskilstuna

°F

Eskilstuna temperature yesterday

Maximum temperature yesterday: 59 °F (at 4:50 PM)
Minimum temperature yesterday: 30 °F (at 4:20 AM)
Average temperature yesterday: 44 °F

Past Weeks' High & Low Weather Summary

 TemperatureHumidityPressure
High59 °F (Apr 19, 4:50 PM)100% (Apr 7, 4:50 AM)30.36 "Hg (Apr 7, 4:50 AM)
Low27 °F (Apr 10, 6:20 AM)25% (Apr 5, 2:50 PM)29.33 "Hg (Apr 13, 4:50 PM)
Average44 °F74%29.87 "Hg
* Reported Apr 5 8:20 AM — Apr 20 8:50 AM, Eskilstuna, Weather by CustomWeather, © 2014

Note: Actual official high and low records may vary slightly from our data, if they occured in-between our weather recording intervals... More about our weather records

Advertising

Historic Weather Conditions — Data for Previous 24 hours

 ConditionsComfort  
Time TempWeatherWind HumidityBarometerVisibility
8:50 AM
Apr 20
48 °FCool.2 mph76%30.27 "HgN/A
8:20 AM45 °FQuite cool.No wind87%30.27 "HgN/A
7:50 AM41 °FQuite cool.3 mph93%30.27 "HgN/A
7:20 AM37 °FChilly.No wind93%30.27 "HgN/A
6:50 AM32 °FChilly.2 mph100%30.27 "HgN/A
6:20 AM32 °FIce fog.No wind93%30.27 "Hg6 mi
5:50 AM30 °FChilly.3 mph93%30.24 "HgN/A
5:20 AM30 °FIce fog.No wind100%30.24 "Hg4 mi
4:50 AM30 °FChilly.No wind100%30.27 "Hg1 mi
4:20 AM32 °FChilly.No wind93%30.24 "HgN/A
3:50 AM30 °FChilly.3 mph100%30.24 "HgN/A
3:20 AM34 °FChilly.No wind93%30.24 "HgN/A
2:50 AM34 °FChilly.No wind93%30.24 "Hg1 mi
2:20 AM34 °FChilly.No wind100%30.24 "Hg2 mi
1:50 AM36 °FChilly.No wind93%30.24 "HgN/A
1:20 AM36 °FChilly.No wind93%30.24 "HgN/A
12:50 AM36 °FChilly.No wind100%30.24 "HgN/A
12:20 AM37 °FChilly.No wind93%30.27 "HgN/A
11:50 PM
Apr 19
39 °FChilly.1 mph93%30.24 "HgN/A
11:20 PM39 °FChilly.No wind93%30.24 "HgN/A
10:50 PM41 °FQuite cool.No wind87%30.24 "HgN/A
10:20 PM41 °FQuite cool.No wind87%30.24 "HgN/A
9:50 PM43 °FQuite cool.No wind87%30.24 "HgN/A
9:20 PM45 °FQuite cool.No wind76%30.24 "HgN/A
8:50 PM50 °FCool.1 mph71%30.24 "HgN/A
8:20 PM50 °FCool.2 mph71%30.24 "HgN/A
7:50 PM55 °FRefreshingly cool.2 mph59%30.24 "HgN/A
7:20 PM57 °FRefreshingly cool.5 mph55%30.24 "HgN/A
6:50 PM59 °FRefreshingly cool.6 mph51%30.24 "HgN/A
6:20 PM59 °FRefreshingly cool.5 mph48%30.24 "HgN/A
5:50 PM59 °FRefreshingly cool.5 mph48%30.24 "HgN/A
5:20 PM59 °FRefreshingly cool.7 mph48%30.27 "HgN/A
4:50 PM59 °FRefreshingly cool.6 mph51%30.27 "HgN/A
4:20 PM57 °FRefreshingly cool.6 mph55%30.27 "HgN/A
3:50 PM57 °FPassing clouds.7 mph59%30.27 "HgN/A
3:20 PM55 °FSunny.7 mph63%30.27 "Hg10 mi
2:50 PM55 °FSunny.2 mph67%30.30 "Hg10 mi
2:20 PM54 °FPassing clouds.5 mph72%30.30 "HgN/A
1:50 PM52 °FPassing clouds.5 mph72%30.30 "HgN/A
1:20 PM48 °FPassing clouds.6 mph82%30.33 "HgN/A
12:50 PM46 °FPartly sunny.5 mph87%30.33 "Hg6 mi
12:20 PM45 °FFog.6 mph93%30.33 "Hg4 mi
11:50 AM43 °FFog.5 mph100%30.33 "Hg3 mi
11:20 AM41 °FLow clouds.5 mph100%30.33 "Hg2 mi
10:50 AM41 °FDense fog.5 mph100%30.33 "Hg1 mi
10:20 AM39 °FFog.5 mph100%30.33 "Hg1 mi
9:50 AM39 °FFog.5 mph100%30.33 "Hg0 mi
9:20 AM39 °FFog.5 mph100%30.33 "Hg0 mi
Weather by CustomWeather, © 2014

See weather overview